This is the latest recevied weather packets stored in our database for station/object CQ0XPG-11. If no packets are shown the sender has not sent any weather packets the latest 10 day(s).
| Time | Temp. | Humidity | Pressure | Rain* | Wind** | Luminosity | Snow |
|---|---|---|---|---|---|---|---|
| 1777370466 | 20° C | 100% | 999.8 hPa | 0 mm | - | - | - |
| 1777370117 | 20° C | 100% | 999.7 hPa | 0 mm | - | - | - |
| 1777369842 | 20.56° C | 100% | 999.7 hPa | 0 mm | - | - | - |
| 1777369539 | 20° C | 100% | 999.6 hPa | 0 mm | - | - | - |
| 1777369225 | 19.44° C | 100% | 999.7 hPa | 0 mm | - | - | - |
| 1777368905 | 19.44° C | 100% | 999.6 hPa | 0 mm | - | - | - |
| 1777368636 | 18.89° C | 100% | 999.7 hPa | 0 mm | - | - | - |
| 1777368324 | 18.89° C | 100% | 999.7 hPa | 0 mm | - | - | - |
| 1777367405 | 18.33° C | 100% | 999.8 hPa | 0 mm | - | - | - |
| 1777366825 | 17.22° C | 100% | 999.7 hPa | 0 mm | - | - | - |
| 1777366478 | 16.11° C | 100% | 999.6 hPa | 0 mm | - | - | - |
| 1777366231 | 16.11° C | 100% | 999.5 hPa | 0 mm | - | - | - |
| 1777365869 | 15.56° C | 100% | 999.3 hPa | 0 mm | - | - | - |
| 1777365596 | 15° C | 100% | 999.3 hPa | 0 mm | - | - | - |
| 1777365265 | 14.44° C | 100% | 999.2 hPa | 0 mm | - | - | - |
| 1777365004 | 14.44° C | 100% | 999 hPa | 0 mm | - | - | - |
| 1777364658 | 13.89° C | 100% | 999 hPa | 0 mm | - | - | - |
| 1777364364 | 13.33° C | 100% | 998.9 hPa | 0 mm | - | - | - |
| 1777364053 | 12.78° C | 100% | 999 hPa | 0 mm | - | - | - |
| 1777363762 | 12.78° C | 100% | 999 hPa | 0 mm | - | - | - |
| 1777361941 | 11.67° C | 100% | 998.6 hPa | 0 mm | - | - | - |
| 1777361020 | 10.56° C | 100% | 998.5 hPa | 0 mm | - | - | - |
| 1777360422 | 10.56° C | 100% | 998.3 hPa | 0 mm | - | - | - |
| 1777359807 | 10° C | 100% | 998.2 hPa | 0 mm | - | - | - |
| 1777359535 | 10° C | 100% | 998.1 hPa | 0 mm | - | - | - |
* Rain since midnight (hover to see other rain measurements)
** Current wind speed in m/s (hover to see current wind gust speed)